Showing default

SHIKONGXING 01, 65712

Orbit data source: Space-Track

SHIKONGXING 01, 65712 is a Chinese payload satellite in LEO that was launched on Wed, 24 Sep 2025 UTC via a JIELONG-3 launch vehicle from the Yellow Sea Launch Area, China (YSLA). Payload-class satellites include a variety of spacecraft equipped with specific instruments for various scientific and technological missions. These include communications satellites like Starlink; space stations such as the ISS; scientific satellites like the Hubble; Earth observation satellites from companies like Planet Labs, Umbra, and HawkEye 360; GPS; miniature CubeSats for education and research; and military/defense satellites.

Loading next visibility...
Identifier
65712, 2025-214A
Orbit
LEO
Country
Flag of CNCN / PRC
Related business
Manufacturer
Shikong Daoyu
Mission
Operational Commercial Navigation
Bus & Motor
GPS50, Unknown motor
Mass
~40 kg wet, ~40 kg dry
Launch date (UTC)
2025-09-24 (9 months ago)
Launch vehicle
JIELONG-3
Launch site
Yellow Sea Launch Area, China (YSLA)
Object type
Payload
Rocket body
Debris
Shape & HBR
Box, 1.1 m
Radar Cross Section
0.375 m², Medium (>0.1 m² and < 1m²)

Expand to show TLE details & history
Last TLE update: 12 hours ago

TLE from 12 hours ago
0 SHIKONGXING 01
1 65712U 25214A   26171.34057756  .00001804  00000-0  19567-3 0  9993
2 65712  49.9872 279.1883 0013562 261.3506  98.5900 14.92852450 40173
Epoch: 2026-06-20T08:10Z
TLE epoch observation values (Epoch: 2026-06-20T08:10:25.901Z)
Latitude
0.00002°
Longitude
-111.97621°
Altitude
591.015 km
Speed
7.565 km/s
True Right ascension
18h 36m 45s
True Declination
0° 00' 00"
Sunlit
Object was in full shadow at epoch
Visualization orbit readout
Latitude
Unknown
Longitude
Unknown
Altitude
Unknown
Speed
Unknown
Apparent Right ascension
Unknown
Apparent Declination
Unknown
Sunlit
N/A
Visualization observer readout
Local Sidereal Time
07:13:01
Azimuth
Unknown
Elevation
Unknown
Doppler factor
Unknown
Orbital elements
Apogee altitude
599.26 km
Perigee altitude
580.36 km
Semi-major axis
6,967.947 km
Eccentricity
0.00136
Inclination
49.9872°
RAAN
279.1883°
Arg. of periapsis
261.3506°
True anomaly
98.74363°
Mean anomaly
98.59°
Eccentric anomaly
98.66682°
Mean motion
3.73152 °/min
Orbital period
96.48 mins
BSTAR
0.00019567
Loading maneuver chart data...
Computing Atmospheric mass density...
Loading historical data...
Loading historical data...
Loading historical data...
Loading historical data...
Loading historical data...
Loading historical data...
Loading historical data...

Documentation

Showing up to 5 results
|